Location: Newark
(40.9833°N, 0.0333°W)
Time: 02:11:47
(UTC+00:00)

Transit 2A Rocket - Pass Details

Date: 31 October 2020
Orbit: 588 x 914 km, 66.7° (Epoch: 26 November)

Event Time Altitude Azimuth Distance (km) Brightness Sun altitude
Rises 17:21:11 0° 333° (NNW) 3,269 8.4 -5.2°
Reaches altitude 10° 17:23:46 10° 337° (NNW) 2,283 7.6 -5.7°
Maximum altitude 17:28:51 56° 56° (NE) 835 4.9 -6.7°
Drops below altitude 10° 17:33:27 10° 135° (SE) 2,066 6.9 -7.5°
Sets 17:35:41 0° 140° (SE) 2,931 7.7 -7.9°
